Wind_Speed
23 24 25 26 26 26 25 24 23 21 21 21 21 22 22 23 23 23 23 23 23 24 25 26 27 27 27 27 27 27 27 27 27 27 27 27 29 29 30 30 30 30 31 32 31 33 35 38 40 42 43 45 46 45 43 42 41 41 42 43 44 44 44
22 23 24 26 26 26 25 25 24 22 21 20 20 21 21 22 23 23 23 23 23 23 24 25 26 26 26 26 26 26 27 27 27 27 28 28 30 31 31 32 33 32 32 33 33 33 34 35 37 39 41 44 46 47 46 44 42 41 42 43 44 44 44
21 23 24 25 26 26 25 25 24 23 22 21 20 20 20 21 22 22 22 22 22 23 23 24 25 25 25 25 25 26 26 26 27 27 27 28 29 30 31 32 34 34 35 35 35 35 35 35 35 36 37 39 43 46 47 46 45 44 44 44 44 44 44
21 22 23 24 25 25 25 24 24 24 23 22 21 20 20 20 20 21 21 22 22 22 22 23 24 25 25 25 25 25 26 26 27 27 27 27 28 29 30 31 32 32 34 35 36 36 36 36 35 35 36 37 39 42 46 47 47 46 46 46 46 45 45
21 22 23 24 24 25 25 24 24 24 24 23 22 21 20 19 19 20 21 21 22 22 23 23 23 24 25 25 25 26 26 27 27 27 27 27 28 29 29 30 30 31 31 32 34 34 35 35 35 35 36 38 38 39 42 46 47 47 47 48 49 48 47
21 22 22 23 25 25 25 24 23 23 23 23 23 22 21 21 20 20 20 21 22 22 23 23 24 24 25 26 26 26 26 27 27 28 28 27 28 28 29 29 29 30 30 31 32 33 33 34 34 34 35 37 39 38 40 44 45 46 48 49 51 51 51
21 21 22 23 24 25 25 25 24 23 24 23 23 22 22 22 22 21 21 21 21 22 22 23 24 25 26 27 27 28 27 27 28 28 28 28 28 29 29 30 30 30 31 31 31 32 33 33 33 33 33 35 37 38 39 42 43 44 44 46 50 53 53
22 22 22 23 24 25 25 24 24 23 24 23 23 22 22 22 22 22 22 21 21 21 21 22 23 24 25 27 28 29 29 29 29 28 28 29 29 30 30 30 31 31 31 32 32 32 33 34 34 34 34 34 36 36 38 39 40 41 41 42 47 52 53
23 23 23 23 24 24 24 24 23 23 23 23 23 23 22 22 22 22 21 21 21 21 22 22 23 24 25 26 27 29 30 31 31 31 30 29 30 30 31 31 31 32 32 33 33 34 34 35 35 36 36 36 36 37 37 37 38 39 40 41 44 49 52
25 25 25 24 24 24 24 24 23 23 23 23 23 23 23 23 23 23 23 23 23 23 23 24 25 25 26 27 28 29 30 31 32 33 33 33 32 32 32 32 33 33 33 34 34 35 36 36 37 37 38 38 37 37 38 37 37 37 39 41 43 46 50
28 27 27 26 25 25 25 25 24 24 24 25 25 25 25 25 25 25 25 25 25 25 25 26 26 27 27 28 29 30 31 32 33 34 35 36 36 36 36 36 36 36 36 36 37 37 38 38 39 39 40 40 40 40 39 39 37 37 38 40 42 44 47
30 30 30 28 28 27 27 27 26 27 27 27 28 28 28 28 27 27 27 27 27 27 27 28 28 28 29 29 30 31 32 33 34 35 36 37 38 39 40 41 41 40 40 40 40 40 41 41 41 42 42 42 42 42 42 42 40 38 38 40 41 43 46
28 29 30 31 31 31 30 29 29 29 29 30 30 31 31 31 30 30 29 29 29 29 30 30 30 31 31 32 32 32 33 34 35 36 36 37 38 40 41 43 43 44 44 44 44 44 44 44 44 44 45 45 45 45 45 45 43 40 39 41 42 43 45
25 27 28 29 30 31 32 32 32 32 32 32 33 33 33 33 33 33 32 32 31 31 31 31 32 32 33 33 34 34 35 36 37 37 38 38 39 40 41 42 44 45 46 46 46 46 46 47 47 46 47 47 47 48 48 48 47 44 42 43 44 44 45
26 27 28 29 30 30 31 31 32 33 33 34 34 34 34 34 35 35 35 34 33 32 32 32 33 33 34 34 35 36 36 37 38 39 40 41 41 42 42 43 44 45 46 47 47 48 48 49 49 49 49 49 49 50 50 50 50 48 45 44 46 46 46
29 29 30 31 32 32 31 30 30 31 33 34 34 35 35 35 35 35 35 35 34 34 33 33 34 35 35 36 37 37 38 39 40 40 41 42 43 44 45 45 46 47 47 48 49 49 50 50 50 51 51 51 51 51 52 52 52 51 49 47 47 48 48
32 31 31 33 35 35 34 33 32 32 32 32 33 33 33 33 34 34 34 34 34 34 35 35 35 36 36 37 37 38 39 39 40 41 42 43 44 45 46 47 48 49 50 50 50 51 52 52 52 52 52 53 54 53 53 54 54 54 52 50 49 50 50
36 35 34 35 36 37 37 36 35 34 33 33 34 34 33 32 32 32 33 34 34 34 35 35 36 36 36 36 36 37 37 38 39 39 40 41 42 43 44 45 47 49 51 52 52 53 53 54 54 54 54 54 55 56 56 56 56 56 55 53 52 52 52
40 41 40 38 37 39 39 38 36 35 35 36 36 36 35 33 32 33 33 34 34 34 34 34 35 35 35 34 34 35 35 36 36 37 38 39 40 41 42 43 44 46 48 50 52 53 54 55 55 56 56 56 56 57 58 58 59 59 58 57 55 54 54
43 45 45 42 40 41 41 41 40 38 37 38 39 38 37 35 34 34 34 34 33 33 33 33 33 33 32 32 32 32 33 34 35 36 37 38 39 40 41 42 43 44 46 47 49 51 53 55 56 56 57 57 58 58 59 60 61 61 61 61 59 57 56
47 47 48 46 43 42 42 43 44 43 41 40 41 40 40 39 37 37 36 35 34 33 33 32 32 32 31 31 31 32 33 34 35 36 37 38 39 40 41 42 42 43 45 46 48 49 50 52 54 55 57 58 58 59 59 60 61 62 63 63 62 61 59
47 49 49 49 48 46 46 46 46 44 42 41 41 41 42 42 42 40 39 37 36 35 34 33 32 32 32 31 32 33 34 36 37 38 39 39 40 41 42 43 43 44 45 47 48 49 51 52 53 54 55 57 58 59 59 60 61 62 63 64 64 63 62
48 50 51 51 51 50 48 47 45 43 41 40 40 42 43 44 45 44 42 40 39 38 36 35 35 35 34 33 33 34 36 38 40 40 41 42 43 44 45 46 47 48 49 49 50 51 52 53 54 55 55 55 57 58 59 60 60 61 63 64 64 64 64
49 52 54 52 51 49 47 46 44 44 44 43 42 42 43 44 46 47 46 44 42 40 39 38 38 38 37 36 36 37 38 40 41 42 43 44 45 46 47 49 50 51 51 53 54 54 54 54 55 56 57 57 57 58 59 59 60 60 62 63 64 65 65
49 50 52 52 51 49 46 46 45 47 49 48 45 44 43 45 47 48 48 47 45 43 42 41 41 40 40 40 39 39 40 41 42 43 45 46 47 47 49 50 51 52 52 54 55 57 58 58 57 57 58 58 59 59 60 60 60 60 61 63 64 64 65
51 49 47 46 46 45 44 45 45 46 48 47 45 44 44 46 48 49 49 49 47 45 44 44 44 44 44 43 42 42 42 42 43 45 46 47 48 49 50 52 53 54 55 56 57 59 60 61 60 59 59 59 60 61 61 62 61 61 62 62 63 63 64
55 53 51 50 51 50 49 49 49 49 50 50 48 47 45 46 47 48 49 50 49 47 46 46 46 47 46 45 45 44 44 45 45 46 47 49 50 52 53 55 56 57 58 60 62 64 64 63 62 61 60 60 60 61 62 63 64 63 63 63 63 63 62
57 56 55 57 60 62 60 57 55 54 54 54 53 52 50 47 44 44 48 50 50 49 48 48 48 49 48 48 47 47 47 48 47 48 49 51 52 54 56 57 59 61 63 65 68 69 68 66 64 63 62 62 61 62 63 64 65 65 65 64 64 63 62
59 58 55 55 56 57 57 57 56 55 56 57 54 53 52 48 43 42 45 50 50 50 50 49 49 50 50 49 49 50 50 50 49 50 51 53 55 56 58 60 62 64 67 70 72 71 69 67 65 64 63 63 63 63 63 64 65 66 66 66 65 64 63
61 59 56 54 55 55 54 54 52 50 52 53 50 49 49 48 46 46 48 50 50 50 50 49 50 50 51 51 52 52 52 51 51 52 53 55 57 59 60 62 64 67 71 72 72 70 68 67 66 65 64 64 64 64 63 64 65 66 67 67 66 65 65
61 58 53 53 57 58 58 54 46 40 40 42 41 42 44 45 46 47 47 48 49 49 49 49 50 51 52 53 54 54 53 53 53 54 55 58 60 61 62 65 68 71 72 71 68 66 65 65 64 63 63 64 64 63 63 64 65 66 67 68 67 66 66
58 55 51 53 55 55 54 50 43 39 41 43 43 42 41 41 43 43 44 46 47 47 48 49 50 52 53 55 55 54 54 54 54 56 58 59 61 63 65 68 70 71 69 66 65 63 62 62 62 62 63 64 64 63 63 64 65 66 67 67 67 67 66
53 49 48 51 53 52 51 48 45 46 47 47 47 47 44 43 43 42 41 42 43 45 48 49 51 53 54 54 54 54 55 56 57 59 60 61 63 65 68 69 68 66 64 62 61 61 61 62 63 64 65 65 64 64 64 65 64 65 66 66 66 67 66
52 48 47 50 54 54 53 49 45 44 44 43 45 47 48 46 44 41 40 41 43 46 49 51 52 53 52 52 53 55 57 59 61 62 62 63 65 67 68 67 63 61 61 61 62 62 62 63 63 64 65 65 65 65 66 65 65 65 64 64 64 64 64
49 47 46 48 53 55 54 50 40 34 35 37 39 42 45 46 45 44 45 47 49 49 50 51 51 51 50 52 54 58 59 61 63 64 64 66 68 69 66 62 59 60 62 62 62 61 60 59 59 59 60 61 62 63 64 63 63 63 62 62 62 63 62
48 47 45 46 50 52 54 54 46 37 34 34 35 39 42 44 45 48 51 53 53 51 50 49 49 50 51 53 57 59 61 63 65 66 66 68 69 66 62 60 61 62 61 59 57 57 57 57 57 57 58 59 61 62 63 62 61 60 60 59 60 60 61
45 45 44 45 46 46 46 49 49 48 44 40 39 39 39 39 42 45 48 50 49 48 47 48 49 50 52 55 58 60 63 64 65 66 67 68 66 62 60 61 62 60 56 55 54 55 55 56 56 56 56 57 57 58 59 59 59 59 58 57 57 57 58
Wind_Direction
265 266 265 265 264 262 260 259 258 257 256 255 255 254 252 252 253 253 252 251 249 248 248 249 248 246 245 244 242 241 242 244 245 246 246 246 246 244 241 240 239 239 238 239 241 241 241 243 245 248 250 248 246 244 243 243 244 247 249 250 251 251 251
263 264 264 264 264 263 261 261 260 258 255 253 252 252 252 252 252 253 252 252 250 249 249 250 250 249 248 247 246 245 244 245 245 247 247 247 248 247 245 244 242 241 240 239 238 239 240 241 243 248 252 252 249 246 245 244 244 246 248 250 251 252 251
260 260 261 262 263 264 263 262 261 260 257 254 251 250 250 250 251 252 253 253 252 250 248 249 250 251 250 249 249 249 248 248 247 247 248 249 249 249 248 248 246 245 245 244 242 242 243 242 243 246 250 253 252 249 248 248 248 247 248 249 250 251 252
260 259 258 258 260 262 263 263 263 263 261 259 256 253 250 249 248 249 250 251 252 251 250 249 248 249 250 249 247 248 248 249 248 248 248 248 249 250 250 250 250 250 250 250 250 248 247 247 246 246 248 252 253 250 249 251 252 251 250 249 249 249 251
260 259 258 256 257 259 261 262 263 264 265 265 264 261 258 254 251 249 249 249 249 250 251 251 250 249 250 249 248 246 246 247 248 248 247 246 248 250 250 251 252 252 252 253 254 254 252 251 249 247 247 250 252 250 248 250 253 254 253 252 251 249 249
258 258 258 256 256 256 258 260 261 262 264 266 268 268 267 264 260 256 253 252 251 251 251 251 252 252 252 252 252 250 249 249 250 250 251 250 249 250 251 252 253 254 254 254 255 257 257 256 254 252 249 250 251 249 247 249 252 254 256 255 253 250 249
257 257 257 256 255 255 256 258 259 260 260 262 263 265 267 268 267 265 263 260 258 257 256 255 254 254 255 255 255 254 254 253 252 253 254 255 255 254 254 254 254 255 256 257 257 258 260 260 259 258 255 253 253 252 249 250 251 253 256 257 253 250 249
254 255 255 255 254 254 255 256 258 259 259 260 260 260 261 263 265 266 267 267 266 264 262 261 259 258 257 257 257 257 257 257 257 256 255 255 256 257 257 256 256 256 256 258 258 259 260 261 262 262 260 258 258 257 255 254 254 255 255 256 254 250 249
253 252 252 252 253 253 253 254 256 258 259 260 260 260 259 259 259 260 261 262 263 264 264 263 263 262 261 260 259 259 258 258 259 259 259 258 257 257 258 258 258 257 257 258 259 260 260 261 262 263 263 262 261 261 260 259 258 257 255 254 253 251 250
254 253 251 251 251 251 250 251 252 255 257 259 260 261 260 259 259 258 258 258 258 259 260 261 262 262 262 262 262 262 261 261 260 260 261 261 260 259 259 259 259 260 259 259 260 261 262 263 264 265 266 266 265 265 264 263 261 259 256 254 252 251 251
256 255 253 252 251 251 251 250 250 251 253 256 257 258 259 259 259 259 259 260 260 261 261 261 262 262 262 262 262 262 262 262 262 262 262 263 263 263 263 263 262 262 262 262 262 262 263 264 265 267 267 268 268 268 268 266 264 262 260 258 255 252 250
261 260 258 257 255 254 254 253 252 251 251 251 253 254 255 256 257 258 259 259 260 261 262 263 263 264 264 263 263 263 262 262 261 261 262 262 263 264 265 266 266 266 265 265 265 264 264 264 265 266 267 268 269 269 269 268 265 263 262 261 260 256 253
266 264 262 261 260 258 257 256 255 254 252 251 251 251 253 254 255 256 257 258 259 260 262 264 265 266 266 266 266 266 265 264 263 262 261 261 261 262 263 265 266 267 267 267 267 267 266 266 266 266 266 267 268 268 268 268 266 264 263 263 261 260 259
271 269 266 263 261 258 257 257 256 256 255 254 253 252 252 253 254 255 256 257 259 260 262 263 265 266 267 268 268 268 268 267 266 265 264 263 262 261 262 262 263 264 265 266 268 268 268 268 267 267 266 267 268 268 268 267 267 265 263 264 263 262 261
270 269 268 266 262 259 257 257 257 257 256 256 255 254 254 254 255 255 256 257 259 260 261 262 263 264 266 267 268 268 269 269 269 269 268 266 265 263 262 262 262 262 263 263 265 266 267 267 267 267 267 266 266 267 267 267 267 266 264 264 264 264 263
269 268 268 266 264 262 260 260 260 259 258 257 256 255 254 254 255 255 255 256 258 259 261 262 263 264 265 267 268 269 269 270 270 271 271 270 269 267 266 264 263 262 262 262 263 263 264 265 266 267 267 267 266 266 267 266 266 266 265 264 265 265 264
271 271 269 267 265 263 262 262 263 262 261 260 258 256 255 255 255 255 256 257 259 261 263 264 265 266 267 268 269 271 271 272 273 272 272 272 272 272 271 269 268 265 264 263 263 263 263 263 263 264 265 266 267 266 266 266 266 266 265 265 265 266 265
272 274 272 269 267 265 264 264 264 263 262 262 263 261 257 256 257 259 261 263 265 267 267 268 268 268 269 270 271 272 273 274 275 276 276 276 276 275 274 274 273 271 268 267 266 265 264 263 263 263 263 264 265 266 266 266 266 266 265 265 265 265 266
270 273 273 270 269 269 266 265 266 266 264 265 266 264 259 258 261 263 265 267 268 270 271 270 270 270 271 272 273 274 275 276 278 280 280 281 281 280 279 278 278 276 274 272 270 269 267 265 264 263 263 263 263 264 265 266 266 266 266 265 265 265 265
266 269 271 270 270 272 269 268 269 270 269 269 268 266 262 261 264 265 266 268 270 271 271 270 271 272 272 274 276 278 280 281 283 285 285 286 285 285 285 284 284 282 280 277 275 274 271 268 266 264 264 263 263 262 263 264 265 265 266 266 265 265 265
264 266 268 267 267 273 275 274 273 270 270 270 269 268 266 265 266 267 266 268 270 270 270 270 272 273 273 275 278 280 284 287 289 289 289 289 289 288 288 288 288 288 286 283 281 278 276 273 270 267 265 264 263 262 262 262 263 264 264 265 265 265 264
267 266 265 264 267 272 276 278 276 271 269 270 269 269 269 268 268 268 267 268 269 270 269 269 271 272 273 275 277 282 287 290 291 290 289 289 288 288 288 288 288 289 289 288 286 284 281 278 275 272 269 267 264 262 261 261 261 262 263 263 264 264 264
269 267 266 266 268 271 272 274 275 271 268 269 270 271 271 270 269 269 268 268 269 270 270 270 271 272 272 273 277 282 286 288 288 288 288 288 288 288 288 288 288 288 288 288 288 287 285 282 278 275 273 271 268 265 263 261 260 260 261 261 262 263 263
266 267 267 267 267 268 268 268 269 270 267 267 269 271 272 272 271 270 269 268 269 271 271 271 271 271 271 273 276 280 282 284 285 286 288 289 289 289 288 288 288 288 288 288 288 288 287 284 281 277 274 273 271 268 266 263 261 260 259 260 260 261 262
264 263 263 263 263 263 264 264 265 267 265 264 266 269 271 273 272 270 270 268 268 270 271 270 270 270 271 272 274 277 280 281 283 285 287 290 290 289 288 287 287 287 288 289 289 288 287 285 282 278 275 273 271 270 268 266 263 261 260 259 258 259 260
263 260 258 261 262 261 262 264 265 264 260 262 267 269 272 275 272 268 269 268 266 268 270 269 269 269 270 271 273 276 278 279 281 284 287 289 289 288 288 288 288 289 289 290 291 290 288 285 281 278 276 273 271 270 268 267 265 263 261 259 257 257 258
263 262 260 260 261 264 267 267 265 263 260 263 268 269 274 279 274 266 266 268 267 267 268 267 267 268 270 271 273 275 276 278 280 283 286 287 288 288 288 288 290 291 291 292 292 291 289 284 279 276 274 273 271 270 268 267 266 264 262 260 257 256 256
263 262 263 263 263 266 269 267 264 264 264 266 270 270 273 280 277 266 265 268 267 265 266 266 266 268 270 272 273 275 275 276 279 282 285 287 288 288 289 290 291 292 292 293 292 291 288 283 278 274 272 271 271 270 268 267 265 264 263 261 259 256 255
262 261 263 266 266 266 266 264 262 263 264 267 270 269 270 275 274 268 270 272 267 264 264 265 266 268 271 272 274 274 275 276 278 281 285 287 289 289 290 291 291 292 292 291 290 288 285 281 277 274 271 270 269 269 268 266 265 264 262 261 260 257 255
262 260 259 264 266 264 261 261 261 263 263 265 267 267 267 269 269 271 275 274 266 263 265 265 266 269 271 273 273 274 275 276 278 281 285 288 289 290 291 291 291 290 290 289 286 284 281 278 276 273 271 270 269 268 267 265 264 263 262 261 259 258 256
263 261 258 259 260 257 255 255 257 260 262 263 265 265 265 266 268 272 274 270 264 263 265 266 268 270 272 272 274 275 277 278 280 283 287 289 290 291 291 290 290 289 288 286 282 279 277 275 274 273 271 270 268 267 266 264 263 262 261 260 259 258 256
263 263 258 255 253 253 252 252 255 262 265 264 265 266 266 267 269 271 271 267 264 265 266 267 269 271 272 274 275 277 279 280 282 286 289 290 291 291 291 290 289 288 285 282 279 277 275 273 272 271 271 270 269 268 266 264 263 261 260 259 259 258 257
258 259 256 252 252 255 257 259 266 271 269 266 265 265 266 271 272 269 267 266 267 269 268 268 269 271 273 276 278 279 281 283 286 288 290 290 291 291 291 291 289 286 283 280 278 276 275 273 272 271 270 269 268 267 266 264 263 262 260 259 258 258 258
257 258 255 251 251 255 259 264 271 271 266 264 264 262 263 269 269 261 259 264 271 271 268 267 269 273 276 278 280 282 284 286 288 289 290 291 291 292 292 290 286 284 282 281 280 278 276 275 273 271 269 269 268 266 265 264 263 262 260 259 258 257 256
257 259 257 253 252 253 256 260 266 268 265 265 266 263 264 266 263 256 258 267 274 272 268 269 272 275 277 279 281 283 285 287 288 289 291 292 293 293 291 287 285 284 284 283 282 280 278 275 273 270 269 267 266 266 265 264 263 262 261 259 257 256 255
254 257 256 254 252 252 252 254 258 264 269 271 271 269 267 265 262 260 262 268 272 271 269 271 274 276 278 280 282 284 286 288 289 290 293 294 294 292 289 287 286 287 285 283 281 279 278 275 273 271 269 267 266 266 265 265 264 262 260 258 256 255 253
250 251 250 248 246 247 251 253 255 259 265 271 275 274 270 268 266 265 265 267 269 269 270 273 275 278 280 282 284 285 287 288 290 292 294 294 292 290 288 288 289 287 285 283 282 280 278 275 273 272 270 269 267 267 266 265 264 262 260 258 256 254 252
Height
5744 5744 5744 5744 5745 5745 5746 5747 5748 5749 5749 5750 5750 5751 5751 5752 5752 5753 5754 5755 5756 5757 5758 5758 5759 5760 5761 5762 5763 5764 5765 5766 5767 5768 5769 5770 5770 5771 5773 5775 5776 5778 5779 5780 5781 5781 5782 5784 5785 5786 5787 5787 5789 5791 5793 5794 5795 5796 5797 5798 5799 5800 5801
5742 5742 5741 5741 5741 5742 5743 5743 5744 5746 5747 5747 5748 5749 5749 5750 5750 5751 5751 5752 5753 5754 5755 5755 5756 5757 5758 5759 5760 5761 5762 5763 5764 5765 5766 5767 5767 5768 5769 5770 5772 5773 5775 5776 5777 5778 5779 5781 5781 5782 5782 5782 5784 5786 5788 5789 5791 5792 5793 5794 5795 5796 5797
5739 5739 5739 5739 5738 5739 5739 5740 5741 5742 5743 5744 5745 5746 5747 5748 5748 5749 5749 5750 5751 5752 5752 5753 5754 5754 5755 5757 5758 5758 5759 5760 5761 5762 5763 5764 5765 5765 5766 5766 5767 5768 5770 5771 5772 5774 5775 5776 5777 5778 5778 5778 5779 5781 5782 5784 5786 5788 5789 5790 5791 5792 5793
5737 5737 5737 5737 5736 5736 5736 5737 5737 5738 5739 5740 5742 5743 5744 5745 5746 5746 5747 5747 5748 5749 5750 5750 5751 5752 5753 5754 5755 5756 5756 5757 5758 5759 5760 5761 5762 5762 5763 5763 5763 5764 5765 5766 5767 5768 5769 5771 5773 5774 5775 5774 5775 5776 5778 5778 5780 5782 5784 5786 5787 5788 5789
5734 5734 5735 5734 5734 5734 5734 5734 5735 5735 5736 5736 5738 5739 5740 5742 5743 5743 5744 5745 5745 5746 5747 5748 5748 5749 5750 5751 5752 5753 5754 5755 5755 5756 5757 5758 5759 5759 5760 5760 5760 5761 5762 5762 5763 5763 5764 5766 5767 5769 5771 5770 5770 5773 5774 5773 5774 5777 5779 5781 5783 5784 5785
5731 5732 5732 5732 5732 5732 5732 5732 5733 5733 5733 5733 5734 5735 5736 5737 5739 5740 5741 5742 5742 5743 5744 5745 5745 5746 5747 5748 5749 5750 5751 5752 5752 5753 5754 5755 5756 5756 5756 5757 5757 5758 5758 5759 5759 5759 5760 5761 5762 5764 5767 5766 5766 5768 5769 5769 5770 5772 5774 5776 5777 5778 5779
5728 5729 5729 5730 5729 5729 5729 5730 5730 5731 5731 5731 5732 5732 5733 5734 5734 5735 5737 5738 5739 5740 5741 5742 5742 5743 5743 5744 5745 5746 5747 5748 5749 5750 5751 5751 5752 5753 5753 5754 5754 5754 5755 5755 5756 5756 5756 5757 5758 5760 5762 5762 5762 5764 5765 5765 5766 5767 5769 5771 5771 5772 5773
5725 5725 5726 5727 5727 5727 5727 5727 5728 5728 5728 5729 5729 5730 5731 5731 5732 5732 5733 5734 5735 5736 5737 5738 5739 5739 5740 5741 5741 5742 5743 5744 5745 5746 5747 5748 5749 5749 5750 5750 5751 5751 5752 5752 5752 5753 5753 5754 5754 5755 5756 5757 5758 5759 5760 5761 5761 5762 5765 5766 5764 5765 5768
5722 5722 5723 5723 5724 5724 5725 5725 5725 5725 5725 5726 5726 5727 5728 5729 5729 5730 5730 5731 5732 5732 5733 5734 5735 5736 5736 5737 5738 5738 5739 5740 5741 5742 5743 5744 5745 5745 5746 5747 5747 5748 5748 5749 5749 5749 5750 5750 5750 5751 5751 5752 5753 5754 5754 5756 5757 5758 5760 5761 5760 5761 5763
5719 5719 5719 5720 5720 5721 5721 5722 5722 5723 5723 5723 5723 5724 5724 5725 5726 5727 5728 5728 5729 5730 5730 5731 5731 5732 5733 5734 5734 5735 5736 5736 5737 5737 5738 5739 5740 5741 5742 5742 5743 5743 5744 5745 5745 5745 5746 5746 5746 5746 5746 5747 5748 5748 5749 5751 5752 5753 5755 5755 5756 5757 5758
5715 5715 5716 5716 5716 5717 5717 5718 5719 5720 5720 5720 5720 5721 5721 5722 5722 5723 5724 5725 5725 5726 5726 5727 5728 5728 5729 5730 5730 5731 5732 5733 5734 5734 5734 5735 5735 5736 5737 5737 5738 5738 5739 5740 5740 5740 5741 5741 5741 5741 5741 5742 5742 5743 5744 5745 5747 5749 5750 5750 5751 5753 5753
5711 5712 5712 5712 5712 5712 5713 5714 5715 5716 5717 5717 5717 5718 5718 5718 5719 5719 5720 5721 5721 5722 5722 5723 5723 5724 5725 5726 5726 5727 5728 5729 5730 5730 5731 5731 5732 5732 5732 5732 5732 5733 5734 5734 5735 5735 5735 5736 5736 5736 5736 5736 5737 5737 5738 5739 5742 5745 5746 5745 5746 5747 5747
5708 5708 5708 5709 5709 5709 5709 5710 5711 5712 5712 5713 5714 5714 5714 5714 5715 5715 5716 5717 5717 5718 5718 5719 5719 5719 5720 5721 5722 5722 5723 5724 5724 5725 5726 5727 5728 5728 5728 5728 5728 5728 5728 5729 5729 5729 5729 5730 5730 5731 5731 5731 5731 5731 5732 5733 5735 5739 5741 5740 5740 5741 5741
5704 5704 5705 5705 5705 5705 5705 5705 5706 5707 5708 5709 5709 5710 5710 5711 5711 5712 5712 5712 5713 5713 5714 5714 5714 5715 5715 5716 5716 5717 5718 5718 5719 5719 5720 5721 5722 5723 5723 5723 5723 5723 5723 5724 5723 5723 5724 5724 5724 5725 5725 5725 5726 5725 5726 5726 5728 5732 5736 5735 5734 5735 5736
5700 5700 5700 5700 5700 5700 5701 5701 5702 5702 5703 5704 5705 5705 5706 5707 5707 5708 5708 5708 5709 5709 5709 5710 5710 5710 5711 5711 5712 5712 5712 5713 5713 5713 5714 5715 5716 5716 5717 5717 5717 5718 5718 5718 5718 5718 5718 5718 5718 5719 5719 5719 5720 5720 5719 5720 5721 5724 5728 5730 5729 5729 5730
5696 5696 5696 5696 5696 5696 5696 5697 5697 5698 5698 5699 5700 5701 5701 5702 5703 5703 5704 5704 5704 5704 5704 5705 5705 5705 5706 5706 5707 5707 5707 5708 5708 5708 5708 5708 5709 5709 5710 5711 5711 5711 5712 5712 5712 5712 5712 5712 5713 5713 5713 5713 5714 5714 5713 5713 5715 5716 5720 5723 5723 5723 5724
5692 5692 5691 5691 5691 5691 5692 5693 5693 5694 5694 5695 5695 5696 5696 5697 5698 5698 5699 5699 5699 5700 5700 5700 5700 5700 5701 5701 5701 5702 5702 5702 5702 5703 5703 5703 5703 5703 5703 5704 5704 5704 5705 5706 5706 5706 5706 5706 5706 5707 5707 5706 5706 5707 5707 5707 5708 5709 5711 5715 5717 5717 5717
5688 5687 5687 5686 5686 5686 5687 5688 5689 5689 5690 5691 5691 5691 5691 5692 5693 5693 5694 5694 5694 5695 5695 5695 5695 5695 5695 5696 5696 5696 5696 5696 5696 5697 5697 5697 5697 5697 5697 5697 5697 5697 5697 5698 5698 5698 5699 5699 5700 5700 5700 5700 5699 5699 5700 5700 5700 5701 5703 5706 5709 5710 5710
5684 5683 5682 5682 5682 5682 5682 5683 5685 5685 5686 5686 5687 5687 5687 5687 5688 5688 5688 5689 5689 5689 5689 5690 5690 5690 5690 5690 5690 5690 5691 5691 5691 5691 5691 5691 5691 5691 5691 5691 5691 5690 5690 5691 5691 5691 5691 5691 5692 5693 5693 5693 5693 5692 5692 5692 5692 5693 5695 5697 5700 5702 5703
5681 5679 5678 5679 5678 5678 5678 5680 5681 5682 5682 5682 5683 5683 5683 5683 5683 5683 5683 5683 5684 5684 5684 5684 5684 5685 5685 5685 5685 5685 5685 5685 5686 5686 5686 5686 5685 5685 5685 5684 5684 5684 5684 5683 5683 5683 5683 5683 5684 5685 5685 5685 5686 5686 5686 5685 5685 5685 5686 5688 5691 5694 5695
5676 5675 5675 5674 5674 5674 5674 5676 5677 5678 5678 5678 5678 5679 5679 5679 5679 5678 5678 5679 5679 5679 5679 5679 5679 5679 5679 5680 5679 5680 5680 5680 5680 5680 5680 5680 5680 5679 5679 5678 5678 5677 5677 5676 5676 5676 5675 5675 5675 5676 5676 5677 5677 5678 5679 5679 5678 5678 5679 5680 5681 5684 5686
5671 5670 5670 5670 5669 5669 5670 5671 5672 5673 5674 5674 5674 5674 5675 5674 5674 5674 5674 5674 5674 5674 5674 5674 5674 5674 5674 5674 5674 5674 5674 5674 5674 5675 5675 5675 5674 5674 5673 5672 5672 5671 5670 5669 5669 5668 5668 5667 5667 5668 5668 5668 5669 5670 5671 5671 5671 5671 5671 5672 5673 5674 5677
5666 5664 5664 5664 5664 5664 5665 5666 5666 5667 5669 5669 5669 5669 5670 5669 5669 5670 5669 5669 5669 5669 5669 5669 5669 5669 5668 5668 5668 5668 5669 5669 5668 5668 5668 5668 5668 5668 5667 5666 5665 5664 5664 5663 5662 5661 5660 5660 5659 5659 5659 5659 5659 5660 5662 5663 5664 5664 5664 5664 5665 5666 5668
5661 5658 5657 5657 5657 5658 5660 5660 5661 5662 5663 5663 5664 5664 5664 5664 5664 5664 5664 5665 5665 5665 5665 5664 5664 5663 5663 5663 5663 5662 5663 5663 5662 5662 5662 5661 5661 5661 5660 5659 5658 5657 5657 5656 5654 5654 5653 5652 5651 5651 5651 5651 5651 5651 5652 5653 5655 5656 5656 5656 5657 5658 5659
5654 5652 5651 5651 5651 5652 5653 5654 5654 5655 5656 5657 5657 5658 5658 5658 5658 5659 5659 5660 5660 5660 5659 5659 5658 5658 5658 5657 5657 5657 5657 5656 5656 5655 5654 5654 5653 5653 5653 5652 5651 5650 5649 5648 5647 5646 5645 5644 5643 5642 5642 5642 5642 5642 5642 5643 5645 5646 5647 5648 5649 5650 5652
5646 5646 5646 5646 5645 5645 5647 5648 5648 5648 5649 5650 5651 5651 5652 5652 5652 5653 5654 5654 5654 5654 5653 5653 5653 5652 5652 5652 5651 5651 5651 5650 5650 5649 5648 5647 5646 5645 5644 5644 5643 5642 5641 5640 5639 5638 5637 5636 5635 5634 5633 5633 5633 5633 5633 5633 5635 5636 5637 5639 5641 5643 5644
5639 5640 5641 5641 5640 5639 5641 5642 5642 5642 5643 5644 5644 5645 5645 5645 5645 5646 5647 5648 5648 5648 5647 5647 5647 5646 5646 5646 5645 5645 5645 5644 5643 5642 5641 5640 5638 5637 5636 5635 5635 5634 5632 5631 5630 5628 5627 5626 5625 5625 5624 5624 5624 5624 5623 5624 5624 5625 5627 5629 5631 5635 5635
5633 5634 5634 5634 5634 5633 5634 5635 5636 5636 5636 5637 5638 5639 5639 5640 5639 5640 5641 5641 5641 5640 5640 5640 5640 5640 5640 5640 5640 5639 5639 5638 5637 5636 5634 5633 5631 5630 5629 5627 5626 5625 5623 5622 5619 5618 5616 5615 5614 5615 5615 5614 5614 5614 5614 5614 5614 5614 5616 5618 5621 5625 5627
5625 5626 5626 5626 5627 5627 5627 5627 5628 5629 5629 5630 5631 5633 5634 5634 5634 5634 5635 5635 5634 5633 5633 5633 5634 5634 5634 5634 5634 5633 5632 5631 5630 5629 5627 5626 5624 5623 5621 5619 5618 5616 5614 5612 5609 5606 5605 5603 5603 5603 5604 5604 5604 5604 5605 5604 5603 5604 5605 5607 5610 5613 5616
5616 5618 5619 5620 5620 5620 5620 5620 5620 5621 5622 5623 5625 5627 5628 5628 5629 5629 5628 5628 5627 5627 5627 5627 5628 5628 5628 5627 5627 5626 5626 5625 5623 5621 5620 5618 5617 5615 5613 5611 5609 5607 5605 5602 5598 5596 5593 5592 5592 5592 5592 5593 5593 5594 5595 5594 5593 5594 5594 5596 5598 5601 5604
5607 5610 5613 5615 5613 5611 5610 5612 5614 5615 5616 5618 5619 5620 5621 5621 5622 5622 5621 5620 5620 5621 5621 5622 5622 5622 5621 5620 5620 5619 5618 5617 5616 5614 5612 5611 5609 5607 5605 5602 5599 5596 5594 5591 5588 5586 5583 5581 5581 5581 5581 5581 5582 5584 5584 5583 5582 5584 5583 5584 5587 5589 5592
5601 5604 5607 5609 5608 5605 5604 5606 5610 5611 5611 5612 5613 5614 5615 5615 5615 5616 5615 5614 5615 5616 5616 5616 5615 5615 5614 5613 5612 5612 5610 5609 5608 5606 5604 5603 5601 5598 5596 5593 5589 5585 5582 5580 5577 5576 5574 5572 5571 5571 5570 5569 5571 5573 5573 5572 5572 5573 5572 5574 5576 5578 5580
5596 5598 5601 5602 5602 5601 5601 5602 5604 5604 5605 5606 5607 5608 5609 5609 5609 5609 5609 5609 5610 5610 5610 5610 5608 5607 5607 5606 5605 5603 5602 5600 5598 5597 5595 5594 5592 5590 5586 5582 5578 5574 5572 5570 5568 5566 5565 5563 5562 5561 5560 5559 5560 5562 5561 5560 5561 5561 5562 5564 5566 5567 5570
5588 5591 5593 5594 5594 5595 5596 5598 5599 5599 5599 5600 5600 5601 5602 5603 5603 5603 5603 5603 5604 5604 5603 5603 5602 5601 5600 5599 5597 5595 5593 5591 5589 5587 5586 5584 5582 5579 5576 5572 5568 5565 5562 5560 5558 5556 5555 5553 5551 5550 5550 5549 5549 5550 5549 5549 5550 5550 5551 5554 5555 5557 5560
5582 5583 5585 5587 5588 5589 5590 5593 5594 5594 5594 5594 5595 5595 5596 5597 5597 5597 5597 5597 5597 5597 5596 5596 5595 5594 5593 5592 5590 5587 5585 5583 5580 5577 5576 5574 5571 5568 5565 5562 5559 5556 5553 5551 5548 5545 5544 5542 5540 5540 5540 5539 5538 5538 5537 5538 5539 5540 5541 5544 5545 5547 5550
5576 5577 5578 5580 5581 5583 5585 5587 5589 5590 5590 5590 5590 5590 5590 5591 5591 5591 5591 5591 5590 5590 5590 5589 5589 5588 5586 5585 5582 5579 5577 5574 5571 5567 5565 5563 5560 5557 5554 5551 5549 5546 5543 5541 5538 5536 5534 5532 5531 5530 5530 5529 5528 5527 5527 5527 5529 5530 5531 5533 5535 5537 5540
5570 5571 5573 5574 5575 5578 5580 5581 5583 5585 5585 5586 5586 5585 5585 5585 5585 5585 5585 5585 5584 5584 5584 5583 5582 5580 5579 5577 5575 5572 5569 5565 5561 5557 5554 5552 5549 5546 5544 5541 5538 5536 5533 5531 5530 5527 5525 5523 5521 5521 5520 5519 5518 5518 5517 5518 5518 5519 5521 5523 5525 5528 5530